Time,TemperatureF,DewpointF,PressureIn,WindDirection,WindDirectionDegrees,WindSpeedMPH,WindSpeedGustMPH,Humidity,HourlyPrecipIn,Conditions,Clouds,dailyrainin,SoftwareType,DateUTC
2013-05-30 00:02:00,46.8,23.7,29.72,NE,45,3.0,4.0,40,0.00,,,0.00,Wunderground PWS Mod,2013-05-30 06:02:00,
2013-05-30 00:09:00,46.7,23.6,29.72,NE,45,4.0,5.0,40,0.00,,,0.00,Wunderground PWS Mod,2013-05-30 06:09:00,
2013-05-30 00:15:00,46.2,23.8,29.71,NNE,33,3.0,4.0,41,0.00,,,0.00,Wunderground PWS Mod,2013-05-30 06:15:00,
2013-05-30 00:20:00,46.5,23.4,29.71,NE,43,2.0,3.0,40,0.00,,,0.00,Wunderground PWS Mod,2013-05-30 06:20:00,
2013-05-30 00:26:00,46.7,23.6,29.71,NE,43,1.0,2.0,40,0.00,,,0.00,Wunderground PWS Mod,2013-05-30 06:26:00,
2013-05-30 00:31:00,46.5,23.4,29.70,NE,43,2.0,2.0,40,0.00,,,0.00,Wunderground PWS Mod,2013-05-30 06:31:00,
2013-05-30 00:36:00,46.1,23.7,29.70,NE,37,3.0,3.0,41,0.00,,,0.00,Wunderground PWS Mod,2013-05-30 06:36:00,
2013-05-30 00:41:00,45.8,24.0,29.70,NE,34,3.0,4.0,42,0.00,,,0.00,Wunderground PWS Mod,2013-05-30 06:41:00,
2013-05-30 00:47:00,45.4,24.2,29.72,NE,34,3.0,4.0,43,0.00,,,0.00,Wunderground PWS Mod,2013-05-30 06:47:00,
2013-05-30 00:52:00,46.2,23.8,29.72,NNE,17,4.0,4.0,41,0.00,,,0.00,Wunderground PWS Mod,2013-05-30 06:52:00,
2013-05-30 00:59:00,47.9,22.8,29.72,NNE,23,4.0,6.0,37,0.00,,,0.00,Wunderground PWS Mod,2013-05-30 06:59:00,
2013-05-30 01:05:00,49.4,22.9,29.70,NNE,18,5.0,5.0,35,0.00,,,0.00,Wunderground PWS Mod,2013-05-30 07:05:00,
2013-05-30 01:10:00,50.2,22.2,29.70,NNE,24,4.0,5.0,33,0.00,,,0.00,Wunderground PWS Mod,2013-05-30 07:10:00,
2013-05-30 01:16:00,51.0,22.1,29.65,NNE,25,5.0,6.0,32,0.00,,,0.00,Wunderground PWS Mod,2013-05-30 07:16:00,
2013-05-30 01:22:00,51.3,21.6,29.65,NNE,21,6.0,6.0,31,0.00,,,0.00,Wunderground PWS Mod,2013-05-30 07:22:00,
2013-05-30 01:27:00,51.6,21.1,29.65,NNE,13,4.0,6.0,30,0.00,,,0.00,Wunderground PWS Mod,2013-05-30 07:27:00,
2013-05-30 01:32:00,51.9,21.4,29.65,North,6,5.0,5.0,30,0.00,,,0.00,Wunderground PWS Mod,2013-05-30 07:32:00,
2013-05-30 01:38:00,52.0,21.5,29.65,NNE,12,3.0,5.0,30,0.00,,,0.00,Wunderground PWS Mod,2013-05-30 07:38:00,
2013-05-30 01:43:00,52.0,21.5,29.65,NNE,23,3.0,4.0,30,0.00,,,0.00,Wunderground PWS Mod,2013-05-30 07:43:00,
2013-05-30 01:48:00,52.2,21.7,29.65,North,358,3.0,4.0,30,0.00,,,0.00,Wunderground PWS Mod,2013-05-30 07:48:00,
2013-05-30 01:53:00,52.2,21.7,29.65,North,0,3.0,4.0,30,0.00,,,0.00,Wunderground PWS Mod,2013-05-30 07:53:00,
2013-05-30 01:58:00,52.2,21.7,29.65,North,5,3.0,4.0,30,0.00,,,0.00,Wunderground PWS Mod,2013-05-30 07:58:00,
2013-05-30 02:03:00,52.2,21.7,29.65,NNE,17,3.0,3.0,30,0.00,,,0.00,Wunderground PWS Mod,2013-05-30 08:03:00,
2013-05-30 02:08:00,52.0,22.3,29.65,NNW,339,0.0,4.0,31,0.00,,,0.00,Wunderground PWS Mod,2013-05-30 08:08:00,
2013-05-30 02:14:00,51.9,22.2,29.65,SW,231,1.0,5.0,31,0.00,,,0.00,Wunderground PWS Mod,2013-05-30 08:14:00,
2013-05-30 02:19:00,51.0,23.6,29.66,SSW,212,2.0,2.0,34,0.00,,,0.00,Wunderground PWS Mod,2013-05-30 08:19:00,
2013-05-30 02:24:00,49.8,24.5,29.66,SSW,212,2.0,4.0,37,0.00,,,0.00,Wunderground PWS Mod,2013-05-30 08:24:00,
2013-05-30 02:29:00,49.2,24.0,29.66,SW,214,1.0,2.0,37,0.00,,,0.00,Wunderground PWS Mod,2013-05-30 08:29:00,
2013-05-30 02:34:00,49.1,23.9,29.67,SW,214,1.0,2.0,37,0.00,,,0.00,Wunderground PWS Mod,2013-05-30 08:34:00,
2013-05-30 02:39:00,48.9,24.4,29.67,SW,235,0.0,2.0,38,0.00,,,0.00,Wunderground PWS Mod,2013-05-30 08:39:00,
2013-05-30 02:44:00,49.2,23.4,29.67,NW,325,2.0,3.0,36,0.00,,,0.00,Wunderground PWS Mod,2013-05-30 08:44:00,
2013-05-30 02:49:00,49.4,24.8,29.67,NW,325,1.0,2.0,38,0.00,,,0.00,Wunderground PWS Mod,2013-05-30 08:49:00,
2013-05-30 02:54:00,49.1,24.6,29.67,NW,325,2.0,2.0,38,0.00,,,0.00,Wunderground PWS Mod,2013-05-30 08:54:00,
2013-05-30 02:59:00,48.5,24.6,29.67,NW,326,2.0,2.0,39,0.00,,,0.00,Wunderground PWS Mod,2013-05-30 08:59:00,
2013-05-30 03:04:00,47.9,24.1,29.68,NNW,335,2.0,2.0,39,0.00,,,0.00,Wunderground PWS Mod,2013-05-30 09:04:00,
2013-05-30 03:09:00,47.4,24.3,29.68,North,352,2.0,2.0,40,0.00,,,0.00,Wunderground PWS Mod,2013-05-30 09:09:00,
2013-05-30 03:14:00,47.0,24.5,29.68,NE,45,3.0,4.0,41,0.00,,,0.00,Wunderground PWS Mod,2013-05-30 09:14:00,
2013-05-30 03:19:00,46.5,24.6,29.68,NE,42,1.0,3.0,42,0.00,,,0.00,Wunderground PWS Mod,2013-05-30 09:19:00,
2013-05-30 03:24:00,46.2,24.9,29.68,NE,42,1.0,2.0,43,0.00,,,0.00,Wunderground PWS Mod,2013-05-30 09:24:00,
2013-05-30 03:30:00,45.7,25.0,29.68,NE,44,2.0,2.0,44,0.00,,,0.00,Wunderground PWS Mod,2013-05-30 09:30:00,
2013-05-30 03:35:00,45.1,25.5,29.68,NE,44,1.0,1.0,46,0.00,,,0.00,Wunderground PWS Mod,2013-05-30 09:35:00,
2013-05-30 03:40:00,44.8,25.8,29.68,ENE,62,1.0,2.0,47,0.00,,,0.00,Wunderground PWS Mod,2013-05-30 09:40:00,
2013-05-30 03:45:00,44.8,25.3,29.70,ENE,62,1.0,1.0,46,0.00,,,0.00,Wunderground PWS Mod,2013-05-30 09:45:00,
2013-05-30 03:50:00,44.9,25.3,29.70,ENE,62,1.0,1.0,46,0.00,,,0.00,Wunderground PWS Mod,2013-05-30 09:50:00,
2013-05-30 03:55:00,45.4,25.8,29.70,NE,41,2.0,3.0,46,0.00,,,0.00,Wunderground PWS Mod,2013-05-30 09:55:00,
2013-05-30 04:00:00,45.8,25.1,29.70,NE,35,1.0,2.0,44,0.00,,,0.00,Wunderground PWS Mod,2013-05-30 10:00:00,
2013-05-30 04:05:00,46.2,24.9,29.70,NE,36,1.0,2.0,43,0.00,,,0.00,Wunderground PWS Mod,2013-05-30 10:05:00,
2013-05-30 04:10:00,46.2,24.3,29.70,NE,37,2.0,2.0,42,0.00,,,0.00,Wunderground PWS Mod,2013-05-30 10:10:00,
2013-05-30 04:15:00,46.1,24.8,29.69,NE,37,2.0,2.0,43,0.00,,,0.00,Wunderground PWS Mod,2013-05-30 10:15:00,
2013-05-30 04:20:00,46.1,24.8,29.69,NE,37,2.0,2.0,43,0.00,,,0.00,Wunderground PWS Mod,2013-05-30 10:20:00,
2013-05-30 04:25:00,45.8,25.1,29.69,NE,37,1.0,2.0,44,0.00,,,0.00,Wunderground PWS Mod,2013-05-30 10:25:00,
2013-05-30 04:30:00,45.7,25.0,29.69,NE,37,1.0,1.0,44,0.00,,,0.00,Wunderground PWS Mod,2013-05-30 10:30:00,
2013-05-30 04:35:00,45.5,24.8,29.69,NE,37,0.0,1.0,44,0.00,,,0.00,Wunderground PWS Mod,2013-05-30 10:35:00,
2013-05-30 04:40:00,45.4,24.7,29.69,NE,37,1.0,1.0,44,0.00,,,0.00,Wunderground PWS Mod,2013-05-30 10:40:00,
2013-05-30 04:45:00,45.1,25.0,29.71,NE,37,1.0,1.0,45,0.00,,,0.00,Wunderground PWS Mod,2013-05-30 10:45:00,
2013-05-30 04:50:00,44.8,24.7,29.71,NE,37,2.0,2.0,45,0.00,,,0.00,Wunderground PWS Mod,2013-05-30 10:50:00,
2013-05-30 04:55:00,44.5,24.5,29.71,NE,37,1.0,2.0,45,0.00,,,0.00,Wunderground PWS Mod,2013-05-30 10:55:00,
2013-05-30 05:00:00,44.2,24.7,29.72,NE,37,1.0,2.0,46,0.00,,,0.00,Wunderground PWS Mod,2013-05-30 11:00:00,
2013-05-30 05:05:00,44.1,25.1,29.72,NE,37,1.0,2.0,47,0.00,,,0.00,Wunderground PWS Mod,2013-05-30 11:05:00,
2013-05-30 05:10:00,43.9,24.9,29.72,NE,37,1.0,2.0,47,0.00,,,0.00,Wunderground PWS Mod,2013-05-30 11:10:00,
2013-05-30 05:15:00,44.1,25.1,29.73,NE,38,1.0,2.0,47,0.00,,,0.00,Wunderground PWS Mod,2013-05-30 11:15:00,
2013-05-30 05:20:00,44.2,25.2,29.73,NE,37,3.0,3.0,47,0.00,,,0.00,Wunderground PWS Mod,2013-05-30 11:20:00,
2013-05-30 05:25:00,44.5,25.0,29.73,NNE,30,2.0,3.0,46,0.00,,,0.00,Wunderground PWS Mod,2013-05-30 11:25:00,
2013-05-30 05:30:00,44.6,25.1,29.72,NNE,30,1.0,2.0,46,0.00,,,0.00,Wunderground PWS Mod,2013-05-30 11:30:00,
2013-05-30 05:35:00,44.8,25.8,29.72,NNE,30,2.0,2.0,47,0.00,,,0.00,Wunderground PWS Mod,2013-05-30 11:35:00,
2013-05-30 05:40:00,44.9,25.9,29.72,NNE,30,1.0,2.0,47,0.00,,,0.00,Wunderground PWS Mod,2013-05-30 11:40:00,
2013-05-30 05:45:00,44.8,25.8,29.73,NNE,32,2.0,2.0,47,0.00,,,0.00,Wunderground PWS Mod,2013-05-30 11:45:00,
2013-05-30 05:50:00,44.8,26.3,29.73,NNE,32,1.0,3.0,48,0.00,,,0.00,Wunderground PWS Mod,2013-05-30 11:50:00,
2013-05-30 05:55:00,44.9,26.4,29.73,NNE,32,1.0,1.0,48,0.00,,,0.00,Wunderground PWS Mod,2013-05-30 11:55:00,
2013-05-30 06:00:00,44.9,26.4,29.73,NNE,32,2.0,2.0,48,0.00,,,0.00,Wunderground PWS Mod,2013-05-30 12:00:00,
2013-05-30 06:05:00,44.9,26.4,29.73,NNE,32,1.0,1.0,48,0.00,,,0.00,Wunderground PWS Mod,2013-05-30 12:05:00,
2013-05-30 06:10:00,44.9,26.4,29.73,NNE,32,0.0,1.0,48,0.00,,,0.00,Wunderground PWS Mod,2013-05-30 12:10:00,
2013-05-30 06:15:00,44.9,26.9,29.77,NNE,32,1.0,1.0,49,0.00,,,0.00,Wunderground PWS Mod,2013-05-30 12:15:00,
2013-05-30 06:20:00,44.9,26.9,29.77,NNE,32,2.0,2.0,49,0.00,,,0.00,Wunderground PWS Mod,2013-05-30 12:20:00,
2013-05-30 06:25:00,44.8,27.3,29.77,NNE,32,1.0,2.0,50,0.00,,,0.00,Wunderground PWS Mod,2013-05-30 12:25:00,
2013-05-30 06:30:00,44.6,27.6,29.77,NNE,31,1.0,2.0,51,0.00,,,0.00,Wunderground PWS Mod,2013-05-30 12:30:00,
2013-05-30 06:35:00,44.5,27.5,29.77,NNE,32,2.0,4.0,51,0.00,,,0.00,Wunderground PWS Mod,2013-05-30 12:35:00,
2013-05-30 06:40:00,44.6,27.6,29.77,NE,39,3.0,4.0,51,0.00,,,0.00,Wunderground PWS Mod,2013-05-30 12:40:00,
2013-05-30 06:45:00,44.6,27.6,29.78,NE,35,2.0,3.0,51,0.00,,,0.00,Wunderground PWS Mod,2013-05-30 12:45:00,
2013-05-30 06:50:00,44.9,27.8,29.78,NE,36,2.0,2.0,51,0.00,,,0.00,Wunderground PWS Mod,2013-05-30 12:50:00,
2013-05-30 06:55:00,46.0,27.9,29.78,NE,38,1.0,2.0,49,0.00,,,0.00,Wunderground PWS Mod,2013-05-30 12:55:00,
2013-05-30 07:00:00,47.1,27.9,29.77,NE,37,1.0,2.0,47,0.00,,,0.00,Wunderground PWS Mod,2013-05-30 13:00:00,
2013-05-30 07:05:00,48.3,27.9,29.77,NE,37,0.0,2.0,45,0.00,,,0.00,Wunderground PWS Mod,2013-05-30 13:05:00,
2013-05-30 07:10:00,49.9,28.3,29.77,NE,35,2.0,2.0,43,0.00,,,0.00,Wunderground PWS Mod,2013-05-30 13:10:00,
2013-05-30 07:15:00,51.4,27.2,29.75,NNE,23,2.0,3.0,39,0.00,,,0.00,Wunderground PWS Mod,2013-05-30 13:15:00,
2013-05-30 07:20:00,52.3,27.4,29.75,NNE,29,3.0,3.0,38,0.00,,,0.00,Wunderground PWS Mod,2013-05-30 13:20:00,
2013-05-30 07:25:00,52.9,28.0,29.75,NNE,32,2.0,3.0,38,0.00,,,0.00,Wunderground PWS Mod,2013-05-30 13:25:00,
2013-05-30 07:30:00,53.6,27.9,29.74,NNE,29,3.0,3.0,37,0.00,,,0.00,Wunderground PWS Mod,2013-05-30 13:30:00,
2013-05-30 07:34:00,53.9,27.5,29.74,NNE,23,2.0,3.0,36,0.00,,,0.00,Wunderground PWS Mod,2013-05-30 13:34:00,
2013-05-30 07:35:00,54.1,27.7,29.74,NNE,29,3.0,3.0,36,0.00,,,0.00,Wunderground PWS Mod,2013-05-30 13:35:00,
2013-05-30 07:40:00,54.2,27.1,29.74,NNE,32,2.0,3.0,35,0.00,,,0.00,Wunderground PWS Mod,2013-05-30 13:40:00,
2013-05-30 07:45:00,54.7,26.8,29.74,North,10,3.0,3.0,34,0.00,,,0.00,Wunderground PWS Mod,2013-05-30 13:45:00,
2013-05-30 07:50:00,54.8,26.9,29.74,North,0,1.0,2.0,34,0.00,,,0.00,Wunderground PWS Mod,2013-05-30 13:50:00,
2013-05-30 07:55:00,55.0,26.4,29.74,NNE,20,3.0,3.0,33,0.00,,,0.00,Wunderground PWS Mod,2013-05-30 13:55:00,
2013-05-30 08:00:00,55.4,26.0,29.74,NNE,27,1.0,2.0,32,0.00,,,0.00,Wunderground PWS Mod,2013-05-30 14:00:00,
2013-05-30 08:05:00,56.0,26.5,29.74,NNE,30,3.0,4.0,32,0.00,,,0.00,Wunderground PWS Mod,2013-05-30 14:05:00,
2013-05-30 08:10:00,56.7,27.1,29.74,NNW,346,4.0,5.0,32,0.00,,,0.00,Wunderground PWS Mod,2013-05-30 14:10:00,
2013-05-30 08:15:00,56.3,25.2,29.76,North,358,4.0,4.0,30,0.00,,,0.00,Wunderground PWS Mod,2013-05-30 14:15:00,
2013-05-30 08:21:00,55.7,24.7,29.76,NNW,335,6.0,7.0,30,0.00,,,0.00,Wunderground PWS Mod,2013-05-30 14:21:00,
2013-05-30 08:26:00,55.6,24.6,29.76,North,358,5.0,6.0,30,0.00,,,0.00,Wunderground PWS Mod,2013-05-30 14:26:00,
2013-05-30 08:31:00,55.6,25.4,29.77,NNW,333,7.0,7.0,31,0.00,,,0.00,Wunderground PWS Mod,2013-05-30 14:31:00,
2013-05-30 08:36:00,55.7,24.7,29.77,North,349,4.0,9.0,30,0.00,,,0.00,Wunderground PWS Mod,2013-05-30 14:36:00,
2013-05-30 08:41:00,56.3,26.0,29.77,NNW,342,6.0,7.0,31,0.00,,,0.00,Wunderground PWS Mod,2013-05-30 14:41:00,
2013-05-30 08:46:00,56.5,25.4,29.76,NNW,344,1.0,5.0,30,0.00,,,0.00,Wunderground PWS Mod,2013-05-30 14:46:00,
2013-05-30 08:51:00,56.6,25.5,29.76,NNW,329,6.0,6.0,30,0.00,,,0.00,Wunderground PWS Mod,2013-05-30 14:51:00,
2013-05-30 08:56:00,56.5,25.4,29.76,NW,325,5.0,9.0,30,0.00,,,0.00,Wunderground PWS Mod,2013-05-30 14:56:00,
2013-05-30 09:01:00,56.5,26.2,29.77,NNW,341,3.0,8.0,31,0.00,,,0.00,Wunderground PWS Mod,2013-05-30 15:01:00,
2013-05-30 09:06:00,56.6,24.7,29.77,NNW,346,2.0,7.0,29,0.00,,,0.00,Wunderground PWS Mod,2013-05-30 15:06:00,
2013-05-30 09:11:00,57.2,26.0,29.77,NNW,338,7.0,10.0,30,0.00,,,0.00,Wunderground PWS Mod,2013-05-30 15:11:00,
2013-05-30 09:16:00,58.0,25.9,29.78,North,0,3.0,5.0,29,0.00,,,0.00,Wunderground PWS Mod,2013-05-30 15:16:00,
2013-05-30 09:21:00,58.4,25.4,29.78,NNW,341,3.0,4.0,28,0.00,,,0.00,Wunderground PWS Mod,2013-05-30 15:21:00,
2013-05-30 09:26:00,58.4,27.1,29.78,NNW,327,7.0,9.0,30,0.00,,,0.00,Wunderground PWS Mod,2013-05-30 15:26:00,
2013-05-30 09:31:00,58.3,24.4,29.78,NNW,343,7.0,10.0,27,0.00,,,0.00,Wunderground PWS Mod,2013-05-30 15:31:00,
2013-05-30 09:36:00,58.6,24.7,29.78,WNW,294,1.0,4.0,27,0.00,,,0.00,Wunderground PWS Mod,2013-05-30 15:36:00,
2013-05-30 09:40:00,58.7,25.6,29.78,NNW,336,6.0,6.0,28,0.00,,,0.00,Wunderground PWS Mod,2013-05-30 15:40:00,
2013-05-30 09:45:00,58.9,25.8,29.78,NNW,346,3.0,4.0,28,0.00,,,0.00,Wunderground PWS Mod,2013-05-30 15:45:00,
2013-05-30 09:51:00,58.9,24.9,29.78,NNW,345,2.0,11.0,27,0.00,,,0.00,Wunderground PWS Mod,2013-05-30 15:51:00,
2013-05-30 09:56:00,59.5,25.5,29.78,North,349,3.0,6.0,27,0.00,,,0.00,Wunderground PWS Mod,2013-05-30 15:56:00,
2013-05-30 10:01:00,60.1,26.0,29.77,WNW,286,3.0,7.0,27,0.00,,,0.00,Wunderground PWS Mod,2013-05-30 16:01:00,
2013-05-30 10:06:00,60.1,26.0,29.77,NNW,338,5.0,5.0,27,0.00,,,0.00,Wunderground PWS Mod,2013-05-30 16:06:00,
2013-05-30 10:11:00,59.9,24.9,29.77,NNE,23,5.0,8.0,26,0.00,,,0.00,Wunderground PWS Mod,2013-05-30 16:11:00,
2013-05-30 10:16:00,59.9,24.9,29.77,North,4,5.0,11.0,26,0.00,,,0.00,Wunderground PWS Mod,2013-05-30 16:16:00,
2013-05-30 10:21:00,59.8,24.8,29.77,North,358,3.0,7.0,26,0.00,,,0.00,Wunderground PWS Mod,2013-05-30 16:21:00,
2013-05-30 10:26:00,60.1,25.1,29.77,WNW,303,2.0,9.0,26,0.00,,,0.00,Wunderground PWS Mod,2013-05-30 16:26:00,
2013-05-30 10:31:00,60.2,24.2,29.77,North,8,2.0,4.0,25,0.00,,,0.00,Wunderground PWS Mod,2013-05-30 16:31:00,
2013-05-30 10:36:00,60.5,25.4,29.77,NW,307,3.0,4.0,26,0.00,,,0.00,Wunderground PWS Mod,2013-05-30 16:36:00,
2013-05-30 10:41:00,61.0,24.9,29.77,North,357,5.0,12.0,25,0.00,,,0.00,Wunderground PWS Mod,2013-05-30 16:41:00,
2013-05-30 10:46:00,60.4,25.3,29.78,NW,323,6.0,11.0,26,0.00,,,0.00,Wunderground PWS Mod,2013-05-30 16:46:00,
2013-05-30 10:51:00,60.5,24.5,29.78,NNW,348,2.0,6.0,25,0.00,,,0.00,Wunderground PWS Mod,2013-05-30 16:51:00,
2013-05-30 10:56:00,61.2,25.1,29.78,West,280,3.0,5.0,25,0.00,,,0.00,Wunderground PWS Mod,2013-05-30 16:56:00,
2013-05-30 11:01:00,62.1,24.8,29.76,West,266,3.0,7.0,24,0.00,,,0.00,Wunderground PWS Mod,2013-05-30 17:01:00,
2013-05-30 11:06:00,62.7,25.3,29.76,NNW,346,5.0,5.0,24,0.00,,,0.00,Wunderground PWS Mod,2013-05-30 17:06:00,
2013-05-30 11:11:00,62.4,25.1,29.76,NW,326,1.0,4.0,24,0.00,,,0.00,Wunderground PWS Mod,2013-05-30 17:11:00,
2013-05-30 11:16:00,62.6,25.3,29.79,West,276,3.0,5.0,24,0.00,,,0.00,Wunderground PWS Mod,2013-05-30 17:16:00,
2013-05-30 11:21:00,63.2,24.7,29.79,NNW,328,9.0,11.0,23,0.00,,,0.00,Wunderground PWS Mod,2013-05-30 17:21:00,
2013-05-30 11:26:00,63.2,25.8,29.79,NW,313,2.0,5.0,24,0.00,,,0.00,Wunderground PWS Mod,2013-05-30 17:26:00,
2013-05-30 11:31:00,63.4,24.9,29.78,NW,311,4.0,5.0,23,0.00,,,0.00,Wunderground PWS Mod,2013-05-30 17:31:00,
2013-05-30 11:36:00,63.2,24.7,29.78,WSW,257,3.0,9.0,23,0.00,,,0.00,Wunderground PWS Mod,2013-05-30 17:36:00,
2013-05-30 11:41:00,63.1,25.7,29.78,West,261,5.0,9.0,24,0.00,,,0.00,Wunderground PWS Mod,2013-05-30 17:41:00,
2013-05-30 11:46:00,63.2,25.8,29.78,WNW,283,6.0,8.0,24,0.00,,,0.00,Wunderground PWS Mod,2013-05-30 17:46:00,
2013-05-30 11:51:00,63.4,24.9,29.78,SSW,212,4.0,6.0,23,0.00,,,0.00,Wunderground PWS Mod,2013-05-30 17:51:00,
2013-05-30 11:56:00,64.0,25.4,29.78,WSW,250,1.0,5.0,23,0.00,,,0.00,Wunderground PWS Mod,2013-05-30 17:56:00,
2013-05-30 12:01:00,65.0,25.2,29.75,NW,322,1.0,3.0,22,0.00,,,0.00,Wunderground PWS Mod,2013-05-30 18:01:00,
2013-05-30 12:06:00,65.3,25.4,29.75,WSW,257,6.0,6.0,22,0.00,,,0.00,Wunderground PWS Mod,2013-05-30 18:06:00,
2013-05-30 12:11:00,65.5,25.6,29.75,WSW,248,6.0,12.0,22,0.00,,,0.00,Wunderground PWS Mod,2013-05-30 18:11:00,
2013-05-30 12:16:00,65.2,24.2,29.74,SW,229,1.0,12.0,21,0.00,,,0.00,Wunderground PWS Mod,2013-05-30 18:16:00,
2013-05-30 12:21:00,64.8,23.9,29.74,SSW,204,3.0,13.0,21,0.00,,,0.00,Wunderground PWS Mod,2013-05-30 18:21:00,
2013-05-30 12:27:00,65.5,23.3,29.74,NNW,332,4.0,9.0,20,0.00,,,0.00,Wunderground PWS Mod,2013-05-30 18:27:00,
2013-05-30 12:32:00,65.3,24.3,29.74,WNW,295,1.0,8.0,21,0.00,,,0.00,Wunderground PWS Mod,2013-05-30 18:32:00,
2013-05-30 12:37:00,65.8,25.9,29.74,WNW,283,3.0,5.0,22,0.00,,,0.00,Wunderground PWS Mod,2013-05-30 18:37:00,
2013-05-30 12:42:00,65.8,25.9,29.74,NNW,327,0.0,3.0,22,0.00,,,0.00,Wunderground PWS Mod,2013-05-30 18:42:00,
2013-05-30 12:47:00,66.3,25.2,29.74,WSW,256,3.0,6.0,21,0.00,,,0.00,Wunderground PWS Mod,2013-05-30 18:47:00,
2013-05-30 12:51:00,66.6,26.5,29.74,North,349,3.0,10.0,22,0.00,,,0.00,Wunderground PWS Mod,2013-05-30 18:51:00,
2013-05-30 12:56:00,66.0,26.0,29.74,SW,236,3.0,9.0,22,0.00,,,0.00,Wunderground PWS Mod,2013-05-30 18:56:00,
2013-05-30 13:02:00,65.8,24.7,29.73,NNW,340,1.0,15.0,21,0.00,,,0.00,Wunderground PWS Mod,2013-05-30 19:02:00,
2013-05-30 13:07:00,65.6,25.7,29.73,WSW,250,3.0,10.0,22,0.00,,,0.00,Wunderground PWS Mod,2013-05-30 19:07:00,
2013-05-30 13:12:00,66.0,26.0,29.73,West,261,5.0,8.0,22,0.00,,,0.00,Wunderground PWS Mod,2013-05-30 19:12:00,
2013-05-30 13:17:00,65.6,24.6,29.70,NE,54,1.0,4.0,21,0.00,,,0.00,Wunderground PWS Mod,2013-05-30 19:17:00,
2013-05-30 13:22:00,66.8,25.6,29.70,SSW,200,4.0,12.0,21,0.00,,,0.00,Wunderground PWS Mod,2013-05-30 19:22:00,
2013-05-30 13:27:00,67.8,25.2,29.70,WSW,250,5.0,10.0,20,0.00,,,0.00,Wunderground PWS Mod,2013-05-30 19:27:00,
2013-05-30 13:32:00,68.3,25.6,29.68,NW,326,2.0,5.0,20,0.00,,,0.00,Wunderground PWS Mod,2013-05-30 19:32:00,
2013-05-30 13:37:00,67.4,26.1,29.68,NNW,342,3.0,7.0,21,0.00,,,0.00,Wunderground PWS Mod,2013-05-30 19:37:00,
2013-05-30 13:42:00,67.3,26.0,29.68,South,176,3.0,3.0,21,0.00,,,0.00,Wunderground PWS Mod,2013-05-30 19:42:00,
2013-05-30 13:47:00,67.1,24.6,29.68,NW,304,3.0,9.0,20,0.00,,,0.00,Wunderground PWS Mod,2013-05-30 19:47:00,
2013-05-30 13:52:00,67.6,23.8,29.68,SW,236,3.0,10.0,19,0.00,,,0.00,Wunderground PWS Mod,2013-05-30 19:52:00,
2013-05-30 13:57:00,67.9,22.8,29.68,NE,46,4.0,7.0,18,0.00,,,0.00,Wunderground PWS Mod,2013-05-30 19:57:00,
2013-05-30 14:02:00,67.4,23.7,29.69,West,274,3.0,9.0,19,0.00,,,0.00,Wunderground PWS Mod,2013-05-30 20:02:00,
2013-05-30 14:07:00,68.1,21.6,29.69,NNW,327,4.0,11.0,17,0.00,,,0.00,Wunderground PWS Mod,2013-05-30 20:07:00,
2013-05-30 14:12:00,68.1,23.0,29.69,WSW,241,4.0,7.0,18,0.00,,,0.00,Wunderground PWS Mod,2013-05-30 20:12:00,
2013-05-30 14:17:00,68.8,20.7,29.70,WSW,257,3.0,12.0,16,0.00,,,0.00,Wunderground PWS Mod,2013-05-30 20:17:00,
2013-05-30 14:22:00,68.8,20.7,29.70,WSW,238,7.0,7.0,16,0.00,,,0.00,Wunderground PWS Mod,2013-05-30 20:22:00,
2013-05-30 14:27:00,68.1,21.6,29.70,WSW,238,3.0,6.0,17,0.00,,,0.00,Wunderground PWS Mod,2013-05-30 20:27:00,
2013-05-30 14:32:00,68.1,21.6,29.70,SW,235,10.0,14.0,17,0.00,,,0.00,Wunderground PWS Mod,2013-05-30 20:32:00,
2013-05-30 14:37:00,69.4,22.7,29.70,WNW,294,1.0,10.0,17,0.00,,,0.00,Wunderground PWS Mod,2013-05-30 20:37:00,
2013-05-30 14:42:00,70.3,20.4,29.70,SW,229,3.0,6.0,15,0.00,,,0.00,Wunderground PWS Mod,2013-05-30 20:42:00,
2013-05-30 14:47:00,69.6,19.9,29.68,West,281,3.0,9.0,15,0.00,,,0.00,Wunderground PWS Mod,2013-05-30 20:47:00,
2013-05-30 14:52:00,69.3,21.1,29.68,SW,236,6.0,7.0,16,0.00,,,0.00,Wunderground PWS Mod,2013-05-30 20:52:00,
2013-05-30 14:57:00,69.9,20.1,29.68,South,173,6.0,14.0,15,0.00,,,0.00,Wunderground PWS Mod,2013-05-30 20:57:00,
2013-05-30 15:02:00,69.1,17.8,29.69,WNW,300,2.0,16.0,14,0.00,,,0.00,Wunderground PWS Mod,2013-05-30 21:02:00,
2013-05-30 15:07:00,68.8,17.6,29.69,South,179,4.0,7.0,14,0.00,,,0.00,Wunderground PWS Mod,2013-05-30 21:07:00,
2013-05-30 15:12:00,70.6,15.5,29.69,WNW,285,10.0,15.0,12,0.00,,,0.00,Wunderground PWS Mod,2013-05-30 21:12:00,
2013-05-30 15:17:00,71.5,14.2,29.69,NNW,333,3.0,10.0,11,0.00,,,0.00,Wunderground PWS Mod,2013-05-30 21:17:00,
2013-05-30 15:22:00,71.6,16.2,29.69,WSW,244,2.0,7.0,12,0.00,,,0.00,Wunderground PWS Mod,2013-05-30 21:22:00,
2013-05-30 15:27:00,72.0,16.6,29.69,West,259,1.0,10.0,12,0.00,,,0.00,Wunderground PWS Mod,2013-05-30 21:27:00,
2013-05-30 15:32:00,72.3,16.8,29.67,West,262,11.0,15.0,12,0.00,,,0.00,Wunderground PWS Mod,2013-05-30 21:32:00,
2013-05-30 15:37:00,72.0,16.6,29.67,SW,228,9.0,13.0,12,0.00,,,0.00,Wunderground PWS Mod,2013-05-30 21:37:00,
2013-05-30 15:42:00,71.3,14.0,29.67,WSW,238,11.0,22.0,11,0.00,,,0.00,Wunderground PWS Mod,2013-05-30 21:42:00,
2013-05-30 15:47:00,71.5,14.2,29.67,SSW,205,7.0,19.0,11,0.00,,,0.00,Wunderground PWS Mod,2013-05-30 21:47:00,
2013-05-30 15:52:00,71.8,16.4,29.67,WSW,241,15.0,16.0,12,0.00,,,0.00,Wunderground PWS Mod,2013-05-30 21:52:00,
2013-05-30 15:57:00,72.1,14.6,29.67,WNW,286,3.0,12.0,11,0.00,,,0.00,Wunderground PWS Mod,2013-05-30 21:57:00,
2013-05-30 16:02:00,71.8,14.4,29.68,SSW,213,3.0,7.0,11,0.00,,,0.00,Wunderground PWS Mod,2013-05-30 22:02:00,
2013-05-30 16:07:00,71.1,15.9,29.68,West,279,3.0,14.0,12,0.00,,,0.00,Wunderground PWS Mod,2013-05-30 22:07:00,
2013-05-30 16:12:00,70.3,15.2,29.68,SSW,211,5.0,10.0,12,0.00,,,0.00,Wunderground PWS Mod,2013-05-30 22:12:00,
2013-05-30 16:17:00,71.1,15.9,29.70,WSW,252,9.0,14.0,12,0.00,,,0.00,Wunderground PWS Mod,2013-05-30 22:17:00,
2013-05-30 16:22:00,72.1,16.6,29.70,WSW,237,2.0,7.0,12,0.00,,,0.00,Wunderground PWS Mod,2013-05-30 22:22:00,
2013-05-30 16:27:00,72.3,16.8,29.70,WSW,245,5.0,6.0,12,0.00,,,0.00,Wunderground PWS Mod,2013-05-30 22:27:00,
2013-05-30 16:32:00,72.1,16.6,29.69,WSW,257,13.0,18.0,12,0.00,,,0.00,Wunderground PWS Mod,2013-05-30 22:32:00,
2013-05-30 16:37:00,71.5,16.2,29.69,SSW,202,7.0,14.0,12,0.00,,,0.00,Wunderground PWS Mod,2013-05-30 22:37:00,
2013-05-30 16:42:00,71.5,16.2,29.69,SW,215,12.0,16.0,12,0.00,,,0.00,Wunderground PWS Mod,2013-05-30 22:42:00,
2013-05-30 16:47:00,72.0,16.6,29.68,WNW,282,10.0,14.0,12,0.00,,,0.00,Wunderground PWS Mod,2013-05-30 22:47:00,
2013-05-30 16:52:00,71.1,15.9,29.68,WSW,245,9.0,12.0,12,0.00,,,0.00,Wunderground PWS Mod,2013-05-30 22:52:00,
2013-05-30 16:57:00,71.3,16.0,29.68,West,261,5.0,11.0,12,0.00,,,0.00,Wunderground PWS Mod,2013-05-30 22:57:00,
2013-05-30 17:02:00,71.6,14.2,29.69,West,276,5.0,17.0,11,0.00,,,0.00,Wunderground PWS Mod,2013-05-30 23:02:00,
2013-05-30 17:07:00,72.3,16.8,29.69,NW,304,6.0,11.0,12,0.00,,,0.00,Wunderground PWS Mod,2013-05-30 23:07:00,
2013-05-30 17:12:00,72.1,16.6,29.69,West,267,7.0,10.0,12,0.00,,,0.00,Wunderground PWS Mod,2013-05-30 23:12:00,
2013-05-30 17:17:00,72.1,14.6,29.68,West,259,2.0,11.0,11,0.00,,,0.00,Wunderground PWS Mod,2013-05-30 23:17:00,
2013-05-30 17:22:00,71.5,16.2,29.68,WSW,256,17.0,17.0,12,0.00,,,0.00,Wunderground PWS Mod,2013-05-30 23:22:00,
2013-05-30 17:27:00,71.3,16.0,29.68,SW,234,7.0,10.0,12,0.00,,,0.00,Wunderground PWS Mod,2013-05-30 23:27:00,
2013-05-30 17:32:00,71.1,15.9,29.68,West,277,8.0,12.0,12,0.00,,,0.00,Wunderground PWS Mod,2013-05-30 23:32:00,
2013-05-30 17:37:00,71.5,16.2,29.68,West,276,11.0,11.0,12,0.00,,,0.00,Wunderground PWS Mod,2013-05-30 23:37:00,
2013-05-30 17:42:00,71.5,16.2,29.68,West,266,3.0,10.0,12,0.00,,,0.00,Wunderground PWS Mod,2013-05-30 23:42:00,
2013-05-30 17:47:00,71.8,14.4,29.67,WSW,257,6.0,14.0,11,0.00,,,0.00,Wunderground PWS Mod,2013-05-30 23:47:00,
2013-05-30 17:52:00,71.6,16.2,29.67,SSW,193,8.0,14.0,12,0.00,,,0.00,Wunderground PWS Mod,2013-05-30 23:52:00,
2013-05-30 17:57:00,70.8,15.6,29.67,WSW,250,4.0,9.0,12,0.00,,,0.00,Wunderground PWS Mod,2013-05-30 23:57:00,
2013-05-30 18:02:00,70.4,13.3,29.68,West,275,1.0,13.0,11,0.00,,,0.00,Wunderground PWS Mod,2013-05-31 00:02:00,
2013-05-30 18:07:00,70.3,13.2,29.68,West,278,2.0,13.0,11,0.00,,,0.00,Wunderground PWS Mod,2013-05-31 00:07:00,
2013-05-30 18:12:00,70.3,15.2,29.68,WNW,290,6.0,13.0,12,0.00,,,0.00,Wunderground PWS Mod,2013-05-31 00:12:00,
2013-05-30 18:17:00,69.9,14.9,29.67,SW,214,12.0,13.0,12,0.00,,,0.00,Wunderground PWS Mod,2013-05-31 00:17:00,
2013-05-30 18:22:00,69.1,16.1,29.67,WNW,284,4.0,10.0,13,0.00,,,0.00,Wunderground PWS Mod,2013-05-31 00:22:00,
2013-05-30 18:27:00,69.4,16.4,29.67,SW,217,13.0,15.0,13,0.00,,,0.00,Wunderground PWS Mod,2013-05-31 00:27:00,
2013-05-30 18:32:00,69.9,14.9,29.67,West,262,4.0,12.0,12,0.00,,,0.00,Wunderground PWS Mod,2013-05-31 00:32:00,
2013-05-30 18:37:00,69.6,14.7,29.67,SW,217,7.0,11.0,12,0.00,,,0.00,Wunderground PWS Mod,2013-05-31 00:37:00,
2013-05-30 18:42:00,69.4,14.5,29.67,West,259,10.0,11.0,12,0.00,,,0.00,Wunderground PWS Mod,2013-05-31 00:42:00,
2013-05-30 18:47:00,69.6,14.7,29.67,WSW,240,4.0,9.0,12,0.00,,,0.00,Wunderground PWS Mod,2013-05-31 00:47:00,
2013-05-30 18:52:00,69.6,14.7,29.67,West,259,4.0,10.0,12,0.00,,,0.00,Wunderground PWS Mod,2013-05-31 00:52:00,
2013-05-30 18:57:00,69.6,14.7,29.67,West,281,3.0,7.0,12,0.00,,,0.00,Wunderground PWS Mod,2013-05-31 00:57:00,
2013-05-30 19:02:00,69.6,14.7,29.67,SSE,159,2.0,7.0,12,0.00,,,0.00,Wunderground PWS Mod,2013-05-31 01:02:00,
2013-05-30 19:07:00,69.4,14.5,29.67,WSW,251,3.0,8.0,12,0.00,,,0.00,Wunderground PWS Mod,2013-05-31 01:07:00,
2013-05-30 19:12:00,69.3,14.4,29.67,NNW,331,2.0,8.0,12,0.00,,,0.00,Wunderground PWS Mod,2013-05-31 01:12:00,
2013-05-30 19:17:00,69.1,14.3,29.61,West,259,4.0,9.0,12,0.00,,,0.00,Wunderground PWS Mod,2013-05-31 01:17:00,
2013-05-30 19:22:00,68.8,15.9,29.61,WNW,293,9.0,9.0,13,0.00,,,0.00,Wunderground PWS Mod,2013-05-31 01:22:00,
2013-05-30 19:27:00,68.6,13.9,29.61,North,8,2.0,7.0,12,0.00,,,0.00,Wunderground PWS Mod,2013-05-31 01:27:00,
2013-05-30 19:32:00,68.4,17.3,29.61,North,6,3.0,4.0,14,0.00,,,0.00,Wunderground PWS Mod,2013-05-31 01:32:00,
2013-05-30 19:37:00,68.1,17.0,29.61,NNW,334,2.0,6.0,14,0.00,,,0.00,Wunderground PWS Mod,2013-05-31 01:37:00,
2013-05-30 19:42:00,67.8,16.8,29.61,NNW,340,4.0,7.0,14,0.00,,,0.00,Wunderground PWS Mod,2013-05-31 01:42:00,
2013-05-30 19:47:00,67.3,16.4,29.63,NNW,335,6.0,10.0,14,0.00,,,0.00,Wunderground PWS Mod,2013-05-31 01:47:00,
2013-05-30 19:52:00,66.9,19.2,29.63,NNW,342,5.0,10.0,16,0.00,,,0.00,Wunderground PWS Mod,2013-05-31 01:52:00,
2013-05-30 19:57:00,66.4,18.8,29.63,NNW,332,7.0,10.0,16,0.00,,,0.00,Wunderground PWS Mod,2013-05-31 01:57:00,
2013-05-30 20:02:00,66.1,20.0,29.64,North,358,4.0,9.0,17,0.00,,,0.00,Wunderground PWS Mod,2013-05-31 02:02:00,
2013-05-30 20:07:00,65.6,19.6,29.64,North,350,6.0,10.0,17,0.00,,,0.00,Wunderground PWS Mod,2013-05-31 02:07:00,
2013-05-30 20:12:00,65.2,20.6,29.64,North,0,5.0,9.0,18,0.00,,,0.00,Wunderground PWS Mod,2013-05-31 02:12:00,
2013-05-30 20:17:00,64.5,20.0,29.64,NNW,338,7.0,12.0,18,0.00,,,0.00,Wunderground PWS Mod,2013-05-31 02:17:00,
2013-05-30 20:22:00,64.0,19.6,29.64,NNW,333,3.0,9.0,18,0.00,,,0.00,Wunderground PWS Mod,2013-05-31 02:22:00,
2013-05-30 20:28:00,63.5,20.5,29.64,NNW,342,3.0,9.0,19,0.00,,,0.00,Wunderground PWS Mod,2013-05-31 02:28:00,
2013-05-30 20:33:00,62.9,20.0,29.66,NNW,342,5.0,6.0,19,0.00,,,0.00,Wunderground PWS Mod,2013-05-31 02:33:00,
2013-05-30 20:38:00,62.1,20.5,29.66,NNW,338,3.0,5.0,20,0.00,,,0.00,Wunderground PWS Mod,2013-05-31 02:38:00,
2013-05-30 20:43:00,61.5,20.0,29.66,NNW,344,2.0,4.0,20,0.00,,,0.00,Wunderground PWS Mod,2013-05-31 02:43:00,
2013-05-30 20:48:00,60.5,20.3,29.67,North,0,2.0,3.0,21,0.00,,,0.00,Wunderground PWS Mod,2013-05-31 02:48:00,
2013-05-30 20:53:00,59.6,20.7,29.67,North,358,2.0,3.0,22,0.00,,,0.00,Wunderground PWS Mod,2013-05-31 02:53:00,
2013-05-30 20:59:00,59.2,20.3,29.67,NNW,346,1.0,5.0,22,0.00,,,0.00,Wunderground PWS Mod,2013-05-31 02:59:00,
2013-05-30 21:04:00,59.2,20.3,29.69,North,0,2.0,4.0,22,0.00,,,0.00,Wunderground PWS Mod,2013-05-31 03:04:00,
2013-05-30 21:09:00,58.9,20.1,29.69,NNE,18,3.0,4.0,22,0.00,,,0.00,Wunderground PWS Mod,2013-05-31 03:09:00,
2013-05-30 21:14:00,58.3,19.6,29.69,NNE,23,3.0,3.0,22,0.00,,,0.00,Wunderground PWS Mod,2013-05-31 03:14:00,
2013-05-30 21:19:00,57.8,20.2,29.68,NNE,23,2.0,3.0,23,0.00,,,0.00,Wunderground PWS Mod,2013-05-31 03:19:00,
2013-05-30 21:24:00,57.2,20.7,29.68,NNE,25,2.0,3.0,24,0.00,,,0.00,Wunderground PWS Mod,2013-05-31 03:24:00,
2013-05-30 21:29:00,56.9,20.4,29.68,NNE,25,2.0,3.0,24,0.00,,,0.00,Wunderground PWS Mod,2013-05-31 03:29:00,
2013-05-30 21:34:00,57.0,19.5,29.70,North,0,3.0,5.0,23,0.00,,,0.00,Wunderground PWS Mod,2013-05-31 03:34:00,
2013-05-30 21:39:00,57.6,19.0,29.70,NNE,18,2.0,4.0,22,0.00,,,0.00,Wunderground PWS Mod,2013-05-31 03:39:00,
2013-05-30 21:44:00,57.5,18.9,29.70,NNE,18,2.0,3.0,22,0.00,,,0.00,Wunderground PWS Mod,2013-05-31 03:44:00,
2013-05-30 21:49:00,57.0,18.5,29.69,NNE,24,3.0,4.0,22,0.00,,,0.00,Wunderground PWS Mod,2013-05-31 03:49:00,
2013-05-30 21:54:00,56.7,19.3,29.69,NNE,32,3.0,4.0,23,0.00,,,0.00,Wunderground PWS Mod,2013-05-31 03:54:00,
2013-05-30 21:59:00,56.3,18.9,29.69,NE,34,4.0,4.0,23,0.00,,,0.00,Wunderground PWS Mod,2013-05-31 03:59:00,
2013-05-30 22:01:00,56.2,18.8,29.71,NE,38,4.0,4.0,23,0.00,,,0.00,Wunderground PWS Mod,2013-05-31 04:01:00,
2013-05-30 22:06:00,55.6,19.3,29.71,NNE,25,5.0,5.0,24,0.00,,,0.00,Wunderground PWS Mod,2013-05-31 04:06:00,
2013-05-30 22:11:00,55.6,18.3,29.71,NNE,26,4.0,6.0,23,0.00,,,0.00,Wunderground PWS Mod,2013-05-31 04:11:00,
2013-05-30 22:16:00,56.2,17.8,29.70,NNE,30,3.0,6.0,22,0.00,,,0.00,Wunderground PWS Mod,2013-05-31 04:16:00,
2013-05-30 22:21:00,56.5,18.1,29.70,NNE,23,3.0,5.0,22,0.00,,,0.00,Wunderground PWS Mod,2013-05-31 04:21:00,
2013-05-30 22:26:00,56.5,18.1,29.70,NNE,27,4.0,4.0,22,0.00,,,0.00,Wunderground PWS Mod,2013-05-31 04:26:00,
2013-05-30 22:31:00,56.5,17.0,29.71,NNE,27,2.0,3.0,21,0.00,,,0.00,Wunderground PWS Mod,2013-05-31 04:31:00,
2013-05-30 22:36:00,56.2,16.7,29.71,NNE,32,4.0,4.0,21,0.00,,,0.00,Wunderground PWS Mod,2013-05-31 04:36:00,
2013-05-30 22:41:00,55.7,17.4,29.71,NE,40,4.0,4.0,22,0.00,,,0.00,Wunderground PWS Mod,2013-05-31 04:41:00,
2013-05-30 22:46:00,55.7,17.4,29.71,NE,38,3.0,6.0,22,0.00,,,0.00,Wunderground PWS Mod,2013-05-31 04:46:00,
2013-05-30 22:51:00,56.2,17.8,29.71,NNE,27,4.0,6.0,22,0.00,,,0.00,Wunderground PWS Mod,2013-05-31 04:51:00,
2013-05-30 22:56:00,56.0,17.6,29.71,NNE,28,4.0,6.0,22,0.00,,,0.00,Wunderground PWS Mod,2013-05-31 04:56:00,
2013-05-30 23:01:00,56.5,18.1,29.71,NNE,30,4.0,9.0,22,0.00,,,0.00,Wunderground PWS Mod,2013-05-31 05:01:00,
2013-05-30 23:06:00,56.2,17.8,29.71,North,11,5.0,8.0,22,0.00,,,0.00,Wunderground PWS Mod,2013-05-31 05:06:00,
2013-05-30 23:11:00,56.2,17.8,29.71,NE,46,7.0,11.0,22,0.00,,,0.00,Wunderground PWS Mod,2013-05-31 05:11:00,
2013-05-30 23:16:00,56.2,17.8,29.70,NE,52,6.0,6.0,22,0.00,,,0.00,Wunderground PWS Mod,2013-05-31 05:16:00,
2013-05-30 23:21:00,56.0,17.6,29.70,NE,34,4.0,6.0,22,0.00,,,0.00,Wunderground PWS Mod,2013-05-31 05:21:00,
2013-05-30 23:26:00,55.9,17.6,29.70,NNE,19,3.0,6.0,22,0.00,,,0.00,Wunderground PWS Mod,2013-05-31 05:26:00,
2013-05-30 23:31:00,55.4,17.1,29.70,NNE,27,4.0,7.0,22,0.00,,,0.00,Wunderground PWS Mod,2013-05-31 05:31:00,
2013-05-30 23:36:00,55.4,17.1,29.70,NNE,32,3.0,6.0,22,0.00,,,0.00,Wunderground PWS Mod,2013-05-31 05:36:00,
2013-05-30 23:41:00,55.3,17.0,29.70,NE,37,3.0,9.0,22,0.00,,,0.00,Wunderground PWS Mod,2013-05-31 05:41:00,
2013-05-30 23:46:00,55.1,17.9,29.70,North,11,4.0,5.0,23,0.00,,,0.00,Wunderground PWS Mod,2013-05-31 05:46:00,
2013-05-30 23:51:00,55.1,16.9,29.70,NNE,30,4.0,6.0,22,0.00,,,0.00,Wunderground PWS Mod,2013-05-31 05:51:00,
2013-05-30 23:56:00,55.0,17.8,29.70,NNW,343,3.0,4.0,23,0.00,,,0.00,Wunderground PWS Mod,2013-05-31 05:56:00,